CZ-6A DEB, 56278

Orbit data source: Space-Track

CZ-6A DEB, 56278 is space debris in SSO originally from a launch on Fri, 11 Nov 2022 UTC launched from the Taiyaun Space Center, China (TSC). Debris objects in space refer to the collection of defunct objects orbiting the Earth. Examples of debris include non-operational satellites, rocket bodies, and fragments generated from explosions, collisions, or faulty payload assembly.

Loading next visibility...
Identifier
56278, 2022-151ACW
Orbit
SSO
Country
Flag of CNCN / PRC
Related business
Manufacturer
SAST
Mission
Spacecraft
Bus & Motor
Unknown
Mass
Unknown
Launch date (UTC)
2022-11-11 (4 years ago)
Launch vehicle
Unknown
Launch site
Taiyaun Space Center, China (TSC)
Object type
Payload
Rocket body
Debris
Shape & HBR
Unknown shape, 0.1 m
Radar Cross Section
Medium (>0.1 m² and <1 m²)

Expand to show TLE details & history
Last TLE update: 17 hours ago

TLE from 17 hours ago
0 CZ-6A DEB
1 56278U 22151ACW 26235.38433177 -.00000032  00000-0  86546-5 0  9993
2 56278  98.9582 209.5759 0116418 253.6959 105.1373 13.94331543174433
Epoch: 2026-08-23T09:13Z
TLE epoch observation values (Epoch: 2026-08-23T09:13:26.264Z)
Latitude
-0.00002°
Longitude
99.53531°
Altitude
939.45 km
Speed
7.37 km/s
True Right ascension
13h 58m 18s
True Declination
0° 00' 00"
Sunlit
Object was in daylight at epoch
Visualization orbit readout
Latitude
Unknown
Longitude
Unknown
Altitude
Unknown
Speed
Unknown
Apparent Right ascension
Unknown
Apparent Declination
Unknown
Sunlit
N/A
Visualization observer readout
Local Sidereal Time
17:51:28
Azimuth
Unknown
Elevation
Unknown
Doppler factor
Unknown
Orbital elements
Apogee altitude
995.55 km
Perigee altitude
825.84 km
Semi-major axis
7,288.832 km
Eccentricity
0.01164
Inclination
98.9582°
RAAN
209.5759°
Arg. of periapsis
253.6959°
True anomaly
106.42008°
Mean anomaly
105.1373°
Eccentric anomaly
105.77919°
Mean motion
3.48784 °/min
Orbital period
103.22 mins
BSTAR
0.0000086546
Loading maneuver chart data...
Computing Atmospheric mass density...

Documentation

Showing up to 5 results
|